Regional Weather Roundup
Issued by NWS

Home | Current Version | Previous Version | Graphics & Text | Print | Product List | Glossary On
Versions: 1 2 3 4 5 6 7 8 9 10 11 12 13 14 15 16 17 18 19 20 21 22 23 24 25 26 27 28 29 30 31 32 33 34 35 36 37 38 39 40 41 42 43 44 45 46 47 48 49 50
000
ASUS44 KMEG 032300
RWRTN
TENNESSEE HOURLY STATE WEATHER ROUNDUP
NATIONAL WEATHER SERVICE MEMPHIS TN
600 PM CDT MON AUG 03 2015

TNZ002-004-019-021-049-052-054-088>092-040000-
WEST TENNESSEE

CITY           SKY/WX    TMP DP  RH WIND       PRES   REMARKS
MEMPHIS INTL   PTSUNNY   94  66  39 W9        29.91F HX  97
NWS MEMPHIS      N/A     95 N/A N/A MISG        N/A
JACKSON        MOSUNNY   93  70  46 SW7       29.91F HX  99
DYERSBURG        N/A    N/A N/A N/A MISG        N/A
PARIS          SUNNY     88  70  55 NW3       29.93S HX  92
LEXINGTON      SUNNY     93  70  46 W3        29.91S HX  99
$$

TNZ008-025-027-028-033-062-065-066-040000-
NORTH MIDDLE TENNESSEE

CITY           SKY/WX    TMP DP  RH WIND       PRES   REMARKS
NASHVILLE      MOSUNNY   93  61  34 W8        29.92R HX  93
CLARKSVILLE    MOSUNNY   89  70  53 W8        29.91S HX  94
CROSSVILLE     SUNNY     84  65  52 W6        30.00S
$$

TNZ061-075-076-078-094-096-097-040000-
SOUTH MIDDLE TENNESSEE

CITY           SKY/WX    TMP DP  RH WIND       PRES   REMARKS
FAYETTEVILLE     N/A     88  66  48 VRB5      29.95R HX  90
TULLAHOMA      SUNNY     91  64  40 W3        29.96S HX  93
SHELBYVILLE    SUNNY     93  70  46 NW8       29.94R HX  99
$$

TNZ017-018-042-046-047-040000-
NORTHEAST TENNESSEE

CITY           SKY/WX    TMP DP  RH WIND       PRES   REMARKS
TRI CITIES     MOSUNNY   87  54  32 SW9       29.96S
ELIZABETHTON   CLEAR     84  61  45 CALM      29.97R
$$

TNZ012-013-036-069-073-074-040000-
CENTRAL EAST TENNESSEE

CITY           SKY/WX    TMP DP  RH WIND       PRES   REMARKS
KNOXVILLE      MOSUNNY   89  56  32 SW6       29.93S
OAK RIDGE      SUNNY     90  62  39 VRB6      29.95R HX  90
$$

TNZ083-085-099-040000-
SOUTHEAST TENNESSEE

CITY           SKY/WX    TMP DP  RH WIND       PRES   REMARKS
CHATTANOOGA    MOSUNNY   93  58  30 NE6       29.92S HX  92
$$

SKY/WX REPORTED AS FAIR MEANS FEW OR NO CLOUDS BELOW
12 THOUSAND FEET.




USA.gov is the U.S. government's official web portal to all federal, state and local government web resources and services.